{"data":{"norad_id":45760,"epoch":"2026-06-14T20:04:43.870368Z","epoch_age_seconds":8456429,"freshness":"OLD","line1":"1 45760U 20038AG  26165.83661887  .03947475  12206-4  50098-3 0  9991","line2":"2 45760  53.0260  17.2308 0010956 260.8267  99.1538 16.34952431332846","mean_motion":16.34952431,"eccentricity":0.0010956,"inclination_deg":53.026,"raan_deg":17.2308,"arg_perigee_deg":260.8267,"mean_anomaly_deg":99.1538,"bstar":0.00050098,"rev_number":33284,"period_min":88.075956994005,"perigee_km":172.07998049033,"apogee_km":186.44855815166,"semimajor_km":6557.401269321,"source":"CELESTRAK","updated_at":"2026-06-15T09:01:40.268172Z"}}